Time[GMT],significant_wave_height[m](0m),dominant_wave_period[s](0m),max_wave_height[m](0m),mean_wave_direction[degrees](0m),mean_wave_direction_spread[degrees](0m)
2019-08-19 16:00, 1.00,7.4,1.66,59.50,27.00
2019-08-19 17:00, 1.04,7.1,1.57,62.50,28.00
2019-08-19 18:00, 1.03,6.5,2.08,59.50,25.00
2019-08-19 19:00, 1.01,7.4,2.19,58.50,30.00
2019-08-19 20:00, 1.01,7.4,1.66,59.50,34.00
2019-08-19 21:00, 1.03,6.9,1.66,57.50,31.00
2019-08-19 22:00, 0.97,7.1,1.36,61.50,31.00
2019-08-19 23:00, 0.90,6.7,1.51,57.50,32.00
2019-08-20 00:00, 0.98,7.1,1.79,57.50,31.00
2019-08-20 01:00, 1.00,6.9,1.79,58.50,32.00
2019-08-20 02:00, 1.04,6.3,1.62,59.50,29.00
2019-08-20 03:00, 1.00,4.9,1.93,60.50,31.00
2019-08-20 04:00, 1.07,4.8,1.90,56.50,30.00
2019-08-20 05:00, 0.99,5.7,1.72,56.50,29.00
2019-08-20 06:00, 1.07,4.9,1.85,56.50,30.00
2019-08-20 07:00, 1.02,5.4,2.04,59.50,29.00
2019-08-20 08:00, 1.02,6.1,1.88,56.50,28.00
2019-08-20 09:00, 0.98,6.7,1.57,57.50,30.00
2019-08-20 10:00, 0.92,5.1,1.60,56.50,31.00
2019-08-20 11:00, 0.90,5.6,1.50,56.50,34.00
2019-08-20 12:00, 0.97,5.4,1.77,52.50,30.00
2019-08-20 13:00, 0.95,5.0,1.47,55.50,29.00
2019-08-20 14:00, 0.93,5.7,1.48,56.50,28.00
2019-08-20 15:00, 1.02,5.3,2.01,58.50,29.00
2019-08-20 16:00, 0.95,6.1,1.52,62.50,31.00
2019-08-20 17:00, 0.98,5.1,1.52,62.50,32.00
2019-08-20 18:00, 1.00,6.1,1.67,59.50,26.00
2019-08-20 19:00, 0.99,6.5,1.66,59.50,29.00
2019-08-20 20:00, 0.91,5.7,1.77,60.50,31.00
2019-08-20 21:00, 1.01,7.1,1.83,62.50,28.00
2019-08-20 22:00, 1.00,6.1,1.51,59.50,29.00
2019-08-20 23:00, 0.95,5.4,1.58,60.50,28.00
2019-08-21 00:00, 1.01,6.7,1.93,59.50,30.00
2019-08-21 01:00, 1.01,4.9,1.61,54.50,31.00
2019-08-21 02:00, 1.04,5.4,1.86,61.50,32.00
2019-08-21 03:00, 0.96,6.5,1.71,60.50,33.00
2019-08-21 04:00, 0.95,5.7,1.55,63.50,33.00
2019-08-21 05:00, 1.06,5.7,1.54,63.50,29.00
2019-08-21 06:00, 0.96,5.6,1.57,61.50,30.00
2019-08-21 07:00, 1.01,5.3,1.53,62.50,29.00
2019-08-21 08:00, 0.91,5.1,1.47,63.50,31.00
2019-08-21 09:00, 0.89,5.0,1.44,61.50,32.00
2019-08-21 10:00, 0.98,4.3,1.66,59.50,30.00
2019-08-21 11:00, 0.89,4.9,1.41,57.50,32.00
2019-08-21 12:00, 1.04,4.9,1.95,60.50,35.00
2019-08-21 13:00, 0.99,4.7,1.62,63.50,35.00
2019-08-21 14:00, 0.96,5.4,1.77,58.50,36.00
2019-08-21 15:00, 0.95,5.0,1.96,62.50,35.00
2019-08-21 16:00, 0.99,5.0,1.46,61.50,34.00
2019-08-21 17:00, 1.00,5.3,1.60,61.50,32.00
2019-08-21 18:00, 1.02,5.0,1.67,63.50,33.00
2019-08-21 19:00, 1.15,5.0,1.77,69.50,31.00
2019-08-21 20:00, 1.17,4.3,1.74,68.50,31.00
2019-08-21 21:00, 1.04,5.4,1.60,59.50,36.00
2019-08-21 22:00, 1.01,5.1,1.66,59.50,32.00
2019-08-21 23:00, 0.99,5.1,1.64,57.50,33.00
2019-08-22 00:00, 1.03,5.9,1.83,59.50,32.00
2019-08-22 01:00, 1.03,5.6,1.63,57.50,28.00
2019-08-22 02:00, 0.91,5.1,1.35,57.50,32.00
2019-08-22 03:00, 0.96,5.9,1.61,55.50,35.00
2019-08-22 04:00, 0.95,5.4,1.56,57.50,29.00
2019-08-22 05:00, 0.89,5.9,1.36,55.50,30.00
2019-08-22 06:00, 0.88,5.7,1.38,58.50,31.00
2019-08-22 07:00, 0.80,5.1,1.49,57.50,31.00
2019-08-22 08:00, 0.80,5.7,1.32,56.50,31.00
2019-08-22 09:00, 0.73,5.6,1.25,53.50,33.00
2019-08-22 10:00, 0.77,10.5,1.22,53.50,30.00
2019-08-22 11:00, 0.78,5.4,1.35,50.50,29.00
2019-08-22 12:00, 0.82,5.7,1.40,49.50,29.00
2019-08-22 13:00, 0.79,5.3,1.24,50.50,34.00
2019-08-22 14:00, 0.81,5.6,1.14,52.50,30.00
2019-08-22 15:00, 0.88,6.3,1.56,56.50,30.00
2019-08-22 16:00, 1.02,6.1,1.81,61.50,31.00
2019-08-22 17:00, 0.93,5.7,1.57,61.50,29.00
2019-08-22 18:00, 1.07,6.5,1.76,64.50,26.00
2019-08-22 19:00, 1.16,5.9,1.89,62.50,27.00
2019-08-22 20:00, 1.18,6.1,1.91,58.50,32.00
2019-08-22 21:00, 1.21,6.7,1.89,64.50,27.00
2019-08-22 22:00, 1.11,5.6,2.52,62.50,27.00
2019-08-22 23:00, 1.12,6.9,1.76,55.50,26.00
2019-08-23 00:00, 1.04,6.5,2.01,60.50,27.00
2019-08-23 01:00, 1.06,7.1,1.91,58.50,26.00
2019-08-23 02:00, 1.06,6.7,1.65,58.50,28.00
2019-08-23 03:00, 1.14,6.7,1.74,58.50,25.00
2019-08-23 04:00, 1.14,6.3,1.86,58.50,28.00
2019-08-23 05:00, 1.14,6.3,1.99,60.50,24.00
2019-08-23 06:00, 1.18,6.9,2.06,60.50,25.00
2019-08-23 07:00, 1.08,5.7,1.68,60.50,27.00
2019-08-23 08:00, 1.11,5.6,2.11,60.50,26.00
2019-08-23 09:00, 1.05,7.1,1.68,58.50,26.00
2019-08-23 10:00, 1.18,6.7,1.87,62.50,28.00
2019-08-23 11:00, 1.05,6.3,1.60,53.50,30.00
2019-08-23 12:00, 1.09,7.4,1.75,58.50,31.00
2019-08-23 13:00, 1.19,6.7,1.78,61.50,28.00
2019-08-23 14:00, 1.17,6.7,2.80,62.50,31.00
2019-08-23 15:00, 1.23,6.3,2.07,61.50,29.00
2019-08-23 16:00, 1.22,5.6,2.06,59.50,29.00
2019-08-23 17:00, 1.20,6.3,2.13,62.50,29.00
2019-08-23 18:00, 1.13,13.3,1.88,58.50,30.00
2019-08-23 19:00, 1.12,5.7,1.71,64.50,30.00
2019-08-23 20:00, 1.11,6.5,1.94,62.50,29.00
2019-08-23 21:00, 1.08,13.3,1.92,57.50,29.00
2019-08-23 22:00, 1.06,7.4,1.63,58.50,30.00
2019-08-23 23:00, 1.00,4.9,1.47,55.50,29.00
2019-08-24 00:00, 0.95,8.3,1.54,54.50,29.00
2019-08-24 01:00, 1.02,6.5,1.79,55.50,27.00
2019-08-24 02:00, 1.00,5.3,1.54,55.50,26.00
2019-08-24 03:00, 1.09,7.4,1.78,54.50,25.00
2019-08-24 04:00, 1.07,5.4,2.10,57.50,26.00
2019-08-24 05:00, 1.10,5.9,1.63,54.50,28.00
2019-08-24 06:00, 1.15,6.1,1.91,53.50,28.00
2019-08-24 07:00, 1.12,6.1,1.74,56.50,27.00
2019-08-24 08:00, 1.11,5.6,1.71,58.50,27.00
2019-08-24 09:00, 1.08,5.4,1.68,59.50,26.00
2019-08-24 10:00, 1.08,6.5,2.05,54.50,29.00
2019-08-24 11:00, 1.08,6.1,1.69,57.50,28.00
2019-08-24 12:00, 1.02,6.1,1.46,56.50,28.00
2019-08-24 13:00, 1.00,6.7,1.79,57.50,27.00
2019-08-24 14:00, 0.98,6.3,1.68,58.50,29.00
2019-08-24 15:00, 1.02,5.6,1.98,61.50,31.00
2019-08-24 16:00, 0.92,5.9,1.59,59.50,32.00
2019-08-24 17:00, 1.04,4.8,1.84,60.50,32.00
2019-08-24 18:00, 1.00,5.4,1.76,58.50,31.00
2019-08-24 19:00, 0.97,5.3,1.61,58.50,33.00
2019-08-24 20:00, 0.98,7.4,1.53,58.50,31.00
2019-08-24 21:00, 0.92,4.2,1.39,58.50,29.00
2019-08-24 22:00, 0.92,4.9,1.40,57.50,31.00
2019-08-24 23:00, 0.85,4.3,1.28,58.50,32.00
2019-08-25 00:00, 0.78,4.2,1.27,55.50,30.00
2019-08-25 01:00, 0.79,8.3,1.20,53.50,30.00
2019-08-25 02:00, 0.83,6.5,1.39,54.50,30.00
2019-08-25 03:00, 0.77,5.7,1.37,54.50,28.00
2019-08-25 04:00, 0.79,6.9,1.23,55.50,29.00
2019-08-25 05:00, 0.79,5.7,1.48,60.50,28.00
2019-08-25 06:00, 0.84,6.9,1.44,58.50,29.00
2019-08-25 07:00, 0.85,4.9,1.41,59.50,27.00
2019-08-25 08:00, 0.88,7.1,1.36,59.50,28.00
2019-08-25 09:00, 0.87,4.9,1.20,58.50,26.00
2019-08-25 10:00, 0.86,6.9,1.51,59.50,28.00
2019-08-25 11:00, 0.91,4.8,1.73,60.50,28.00
2019-08-25 12:00, 0.93,4.3,1.52,63.50,28.00
2019-08-25 13:00, 0.89,5.7,1.36,65.50,30.00
2019-08-25 14:00, 0.97,4.8,1.56,65.50,30.00
2019-08-25 15:00, 0.98,5.3,1.71,66.50,29.00
2019-08-25 16:00, 0.90,4.4,1.44,62.50,30.00
2019-08-25 17:00, 0.91,5.4,1.43,63.50,30.00
2019-08-25 18:00, 0.89,5.6,1.58,62.50,29.00
2019-08-25 19:00, 0.92,5.6,1.49,61.50,30.00
2019-08-25 20:00, 0.89,5.0,1.42,62.50,30.00
2019-08-25 21:00, 0.90,5.6,1.42,63.50,30.00
2019-08-25 22:00, 0.85,5.6,1.53,62.50,28.00
2019-08-25 23:00, 0.82,6.5,1.19,65.50,31.00
2019-08-26 00:00, 0.80,5.6,1.41,61.50,30.00
2019-08-26 01:00, 0.72,5.0,1.24,61.50,29.00
2019-08-26 02:00, 0.66,5.9,1.19,61.50,31.00
2019-08-26 03:00, 0.70,6.9,1.20,59.50,28.00
2019-08-26 04:00, 0.72,6.7,1.19,58.50,28.00
2019-08-26 05:00, 0.72,6.5,1.14,58.50,29.00
2019-08-26 06:00, 0.75,4.3,1.40,58.50,27.00
2019-08-26 07:00, 0.76,7.4,1.25,59.50,27.00
2019-08-26 08:00, 0.80,7.1,1.50,61.50,28.00
2019-08-26 09:00, 0.82,4.7,1.33,62.50,28.00
2019-08-26 10:00, 0.86,7.4,1.43,63.50,28.00
2019-08-26 11:00, 0.84,4.7,1.47,63.50,31.00
2019-08-26 12:00, 0.82,4.5,1.30,62.50,30.00
2019-08-26 13:00, 0.79,6.9,1.29,66.50,31.00
2019-08-26 14:00, 0.84,4.8,1.31,72.50,31.00
2019-08-26 15:00, 0.90,4.7,1.47,66.50,31.00
2019-08-26 16:00, 0.86,5.3,1.59,64.50,29.00
2019-08-26 17:00, 0.81,4.7,1.38,65.50,30.00
2019-08-26 18:00, 0.83,5.7,1.36,65.50,29.00
2019-08-26 19:00, 0.89,4.5,1.55,65.50,28.00
2019-08-26 20:00, 0.88,4.8,1.35,65.50,28.00
2019-08-26 21:00, 0.84,6.9,1.41,65.50,29.00
2019-08-26 22:00, 0.79,6.7,1.35,66.50,28.00
2019-08-26 23:00, 0.72,6.7,1.11,63.50,35.00
2019-08-27 00:00, 0.66,6.9,0.96,65.50,33.00
2019-08-27 01:00, 0.71,5.9,1.00,61.50,31.00
2019-08-27 02:00, 0.75,7.1,1.25,66.50,33.00
2019-08-27 03:00, 0.84,3.6,1.48,66.50,33.00
2019-08-27 04:00, 0.86,4.0,1.40,70.50,30.00
2019-08-27 05:00, 0.79,4.9,1.35,65.50,31.00
2019-08-27 06:00, 0.76,4.5,1.47,64.50,31.00
2019-08-27 07:00, 0.77,4.7,1.27,62.50,29.00
2019-08-27 08:00, 0.72,6.3,1.16,61.50,29.00
2019-08-27 09:00, 0.72,4.2,1.13,61.50,31.00
2019-08-27 10:00, 0.68,4.2,1.26,65.50,30.00
2019-08-27 11:00, 0.73,4.5,1.10,62.50,37.00
2019-08-27 12:00, 0.69,6.7,1.24,62.50,29.00
2019-08-27 13:00, 0.72,4.9,1.16,61.50,31.00
2019-08-27 14:00, 0.68,4.7,0.99,61.50,30.00
2019-08-27 15:00, 0.67,4.7,1.03,62.50,34.00
2019-08-27 16:00, 0.66,4.4,1.15,62.50,33.00
2019-08-27 17:00, 0.63,6.9,1.10,61.50,33.00
2019-08-27 18:00, 0.67,4.8,1.03,61.50,33.00
2019-08-27 19:00, 0.68,6.7,1.25,60.50,31.00
2019-08-27 20:00, 0.69,5.7,1.12,59.50,33.00
2019-08-27 21:00, 0.77,5.1,1.21,64.50,32.00
2019-08-27 22:00, 0.76,4.7,1.17,60.50,33.00
2019-08-27 23:00, 0.83,4.5,1.25,62.50,33.00
2019-08-28 00:00, 0.92,4.3,1.70,60.50,31.00
2019-08-28 01:00, 0.99,4.9,1.54,65.50,33.00
2019-08-28 02:00, 1.04,5.0,1.73,65.50,31.00
2019-08-28 03:00, 0.94,5.0,1.54,64.50,30.00
2019-08-28 04:00, 0.95,5.1,1.47,64.50,31.00
2019-08-28 05:00, 0.95,5.4,1.59,64.50,34.00
2019-08-28 06:00, 0.92,4.9,1.49,62.50,32.00
2019-08-28 07:00, 0.90,5.4,1.54,66.50,31.00
2019-08-28 08:00, 0.89,5.3,1.52,64.50,31.00
2019-08-28 09:00, 0.95,5.1,1.43,60.50,28.00
2019-08-28 10:00, 0.83,5.7,1.35,59.50,30.00
2019-08-28 11:00, 0.92,5.7,1.70,64.50,30.00
2019-08-28 12:00, 0.97,5.7,1.67,63.50,29.00
2019-08-28 13:00, 0.92,5.1,1.53,63.50,30.00
2019-08-28 14:00, 0.94,5.9,1.54,61.50,33.00
2019-08-28 15:00, 1.07,5.6,1.72,60.50,25.00
2019-08-28 16:00, 1.07,5.6,1.72,59.50,27.00
2019-08-28 17:00, 0.91,5.6,1.57,56.50,32.00
2019-08-28 18:00, 0.97,5.7,1.41,57.50,31.00
2019-08-28 19:00, 0.90,5.1,1.43,54.50,29.00
2019-08-28 20:00, 0.88,5.7,1.55,54.50,30.00
2019-08-28 21:00, 0.93,5.6,1.40,50.50,26.00
2019-08-28 22:00, 0.86,5.4,1.35,46.50,33.00
2019-08-28 23:00, 1.60,9.1,2.48,58.50,23.00
2019-08-29 00:00, 1.31,8.0,2.05,57.50,26.00
2019-08-29 01:00, 1.13,8.0,1.53,49.50,27.00
2019-08-29 02:00, 0.84,7.4,1.58,46.50,28.00
2019-08-29 03:00, 0.68,7.1,1.23,39.50,31.00
2019-08-29 04:00, 0.64,9.1,1.06,37.50,33.00
2019-08-29 05:00, 0.61,8.7,0.90,35.50,34.00
2019-08-29 06:00, 0.61,8.0,1.01,38.50,34.00
2019-08-29 07:00, 0.58,6.7,0.85,26.50,37.00
2019-08-29 08:00, 0.58,7.1,0.86,34.50,36.00
2019-08-29 09:00, 0.59,6.7,0.97,26.50,38.00
2019-08-29 10:00, 0.56,6.7,0.80,35.50,40.00
2019-08-29 11:00, 0.52,6.9,0.84,33.50,41.00
2019-08-29 12:00, 0.60,8.3,0.90,34.50,38.00
2019-08-29 13:00, 0.57,11.8,0.81,37.50,39.00
2019-08-29 14:00, 0.56,6.1,0.90,38.50,41.00
2019-08-29 15:00, 0.57,11.1,1.04,31.50,43.00
2019-08-29 16:00, 0.59,11.8,0.95,21.50,44.00
2019-08-29 17:00, 0.58,11.1,0.87,29.50,40.00
2019-08-29 18:00, 0.61,11.1,1.10,35.50,39.00
2019-08-29 19:00, 0.61,11.1,1.00,46.50,38.00
2019-08-29 20:00, 0.65,11.1,1.07,32.50,38.00
2019-08-29 21:00, 0.75,10.5,1.52,49.50,33.00
2019-08-29 22:00, 0.76,5.4,1.11,49.50,36.00
2019-08-29 23:00, 0.74,8.3,1.20,45.50,38.00
2019-08-30 00:00, 0.75,10.5,1.19,37.50,37.00
2019-08-30 01:00, 0.68,11.1,1.41,38.50,39.00
2019-08-30 02:00, 0.71,5.6,1.17,39.50,35.00
2019-08-30 03:00, 0.70,10.5,0.99,31.50,38.00
2019-08-30 04:00, 0.68,10.0,1.06,34.50,39.00
2019-08-30 05:00, 0.66,10.5,1.09,40.50,37.00
2019-08-30 06:00, 0.68,8.7,0.93,41.50,37.00
2019-08-30 07:00, 0.70,9.5,1.09,44.50,38.00
2019-08-30 08:00, 0.73,8.3,1.16,44.50,38.00
2019-08-30 09:00, 0.75,8.7,1.15,45.50,37.00
2019-08-30 10:00, 0.75,5.4,1.39,37.50,36.00
2019-08-30 11:00, 0.72,9.5,1.05,43.50,37.00
2019-08-30 12:00, 0.69,6.3,1.07,40.50,37.00
2019-08-30 13:00, 0.66,9.5,0.99,43.50,39.00
2019-08-30 14:00, 0.71,9.1,1.06,51.50,35.00
2019-08-30 15:00, 0.68,8.3,0.99,43.50,34.00
2019-08-30 16:00, 0.76,8.3,1.16,44.50,38.00
2019-08-30 17:00, 0.83,4.3,1.31,60.50,33.00
2019-08-30 18:00, 0.82,10.5,1.33,55.50,35.00
2019-08-30 19:00, 0.84,4.3,1.42,58.50,37.00
2019-08-30 20:00, 0.92,7.1,1.45,54.50,31.00
2019-08-30 21:00, 0.80,10.5,1.22,49.50,32.00
2019-08-30 22:00, 0.73,8.3,1.39,55.50,36.00
2019-08-30 23:00, 0.72,10.0,1.28,49.50,34.00
2019-08-31 00:00, 0.68,8.7,1.04,46.50,34.00
2019-08-31 01:00, 0.69,8.7,1.36,31.50,36.00
2019-08-31 02:00, 0.72,8.0,1.29,27.50,36.00
2019-08-31 03:00, 0.75,8.0,1.49,16.50,35.00
2019-08-31 04:00, 0.65,8.0,1.35,33.50,39.00
2019-08-31 05:00, 0.65,10.0,1.00,33.50,37.00
2019-08-31 06:00, 0.63,10.0,1.08,35.50,37.00
2019-08-31 07:00, 0.70,8.7,1.18,33.50,34.00
2019-08-31 08:00, 0.73,10.0,1.20,33.50,35.00
2019-08-31 09:00, 0.70,8.3,1.13,28.50,35.00
2019-08-31 10:00, 0.73,8.3,1.03,28.50,37.00
2019-08-31 11:00, 0.75,9.1,1.09,28.50,38.00
2019-08-31 12:00, 0.67,8.0,1.06,31.50,38.00
2019-08-31 13:00, 0.79,9.5,1.18,40.50,37.00
2019-08-31 14:00, 0.80,9.1,1.12,42.50,33.00
2019-08-31 15:00, 0.76,8.0,1.30,39.50,35.00
2019-08-31 16:00, 0.73,8.7,1.14,48.50,36.00
2019-08-31 17:00, 0.77,4.4,1.15,48.50,33.00
2019-08-31 18:00, 0.70,11.8,1.13,40.50,35.00
2019-08-31 19:00, 0.66,11.8,1.07,45.50,39.00
2019-08-31 20:00, 0.69,8.0,1.05,50.50,35.00
2019-08-31 21:00, 0.72,9.1,1.17,40.50,34.00
2019-08-31 22:00, 0.72,11.8,1.19,39.50,34.00
2019-08-31 23:00, 0.71,11.8,1.04,41.50,35.00
2019-09-01 00:00, 0.62,8.7,1.06,38.50,37.00
2019-09-01 01:00, 0.58,8.7,0.92,36.50,40.00
2019-09-01 02:00, 0.62,11.8,1.02,41.50,37.00
2019-09-01 03:00, 0.62,10.0,1.08,37.50,37.00
2019-09-01 04:00, 0.59,8.7,1.00,37.50,35.00
2019-09-01 05:00, 0.60,8.3,1.02,30.50,40.00
2019-09-01 06:00, 0.68,10.0,1.15,21.50,37.00
2019-09-01 07:00, 0.66,9.1,1.00,18.50,38.00
2019-09-01 08:00, 0.60,9.1,0.95,28.50,37.00
2019-09-01 09:00, 0.54,12.5,0.89,29.50,41.00
2019-09-01 10:00, 0.57,11.1,0.88,31.50,38.00
2019-09-01 11:00, 0.61,9.1,1.04,22.50,41.00
2019-09-01 12:00, 0.58,10.5,0.96,30.50,43.00
2019-09-01 13:00, 0.54,8.3,0.91,40.50,41.00
2019-09-01 14:00, 0.61,11.8,1.16,40.50,36.00
2019-09-01 15:00, 0.60,12.5,1.00,49.50,36.00
2019-09-01 16:00, 0.65,10.5,1.16,49.50,35.00
2019-09-01 17:00, 0.63,12.5,1.03,48.50,38.00
2019-09-01 18:00, 0.62,12.5,1.04,43.50,34.00
2019-09-01 19:00, 0.63,11.8,0.93,46.50,35.00
2019-09-01 20:00, 0.68,6.9,1.43,57.50,37.00
2019-09-01 21:00, 0.72,7.4,1.30,52.50,36.00
2019-09-01 22:00, 0.72,8.3,1.22,46.50,37.00
2019-09-01 23:00, 0.71,8.3,1.16,47.50,36.00
2019-09-02 00:00, 0.72,12.5,1.17,42.50,36.00
2019-09-02 01:00, 0.65,7.7,1.14,50.50,37.00
2019-09-02 02:00, 0.66,9.1,1.04,44.50,35.00
2019-09-02 03:00, 0.65,8.7,0.98,42.50,36.00
2019-09-02 04:00, 0.66,8.3,0.93,42.50,37.00
2019-09-02 05:00, 0.66,8.0,0.97,40.50,37.00
2019-09-02 06:00, 0.71,8.3,1.04,41.50,36.00
2019-09-02 07:00, 0.62,9.1,1.23,46.50,38.00
2019-09-02 08:00, 0.69,8.0,1.14,41.50,40.00
2019-09-02 09:00, 0.69,8.3,1.05,40.50,36.00
2019-09-02 10:00, 0.72,8.7,1.14,48.50,33.00
2019-09-02 11:00, 0.68,8.3,1.29,40.50,37.00
2019-09-02 12:00, 0.72,8.3,1.23,41.50,33.00
2019-09-02 13:00, 0.73,8.0,1.20,40.50,37.00
2019-09-02 14:00, 0.70,8.7,1.05,45.50,34.00
2019-09-02 15:00, 0.76,7.7,1.17,35.50,37.00
2019-09-02 16:00, 0.70,8.3,1.36,45.50,37.00
2019-09-02 17:00, 0.79,8.0,1.43,44.50,38.00
2019-09-02 18:00, 0.82,8.7,1.44,56.50,36.00
2019-09-02 19:00, 1.02,8.3,1.55,52.50,35.00
2019-09-02 20:00, 0.93,7.7,1.64,55.50,37.00
2019-09-02 21:00, 0.90,8.3,1.70,54.50,34.00
2019-09-02 22:00, 0.86,8.7,1.60,50.50,36.00
2019-09-02 23:00, 0.87,8.0,1.20,49.50,37.00
2019-09-03 00:00, 0.81,8.0,1.50,48.50,34.00
2019-09-03 01:00, 0.80,9.1,1.47,34.50,36.00
2019-09-03 02:00, 0.70,8.0,1.07,39.50,41.00
2019-09-03 03:00, 0.78,7.7,1.13,46.50,37.00
2019-09-03 04:00, 0.76,8.3,1.28,43.50,40.00
2019-09-03 05:00, 0.71,8.0,1.17,48.50,38.00
2019-09-03 06:00, 0.79,8.0,1.31,41.50,38.00
2019-09-03 07:00, 0.73,8.0,1.22,40.50,37.00
2019-09-03 08:00, 0.70,7.7,1.08,43.50,38.00
2019-09-03 09:00, 0.68,8.0,1.14,43.50,38.00
2019-09-03 10:00, 0.69,7.7,1.19,38.50,38.00
2019-09-03 11:00, 0.70,7.7,1.18,39.50,35.00
2019-09-03 12:00, 0.65,7.4,1.19,41.50,38.00
2019-09-03 13:00, 0.72,8.0,1.16,41.50,37.00
2019-09-03 14:00, 0.69,7.1,1.02,49.50,36.00
2019-09-03 15:00, 0.74,6.9,1.38,52.50,38.00
2019-09-03 16:00, 0.83,8.0,1.40,54.50,34.00
2019-09-03 17:00, 0.89,4.1,1.48,62.50,34.00
2019-09-03 18:00, 0.91,7.7,1.60,63.50,33.00
2019-09-03 19:00, 0.96,4.2,1.55,62.50,33.00
2019-09-03 20:00, 0.87,7.7,1.34,66.50,30.00
2019-09-03 21:00, 0.88,4.3,1.40,62.50,30.00
2019-09-03 22:00, 0.96,4.3,1.66,66.50,30.00
2019-09-03 23:00, 0.88,7.4,1.73,61.50,33.00
2019-09-04 00:00, 0.92,4.7,1.47,64.50,30.00
2019-09-04 01:00, 0.80,4.9,1.68,59.50,30.00
2019-09-04 02:00, 0.86,5.0,1.55,57.50,33.00
2019-09-04 03:00, 0.89,8.0,1.30,61.50,28.00
2019-09-04 04:00, 0.95,4.5,1.46,62.50,28.00
2019-09-04 05:00, 1.00,5.3,1.59,61.50,26.00
2019-09-04 06:00, 0.98,5.7,1.63,62.50,28.00
2019-09-04 07:00, 0.98,5.0,1.59,64.50,28.00
2019-09-04 08:00, 0.93,4.5,1.51,65.50,28.00
2019-09-04 09:00, 0.95,5.6,1.75,64.50,28.00
2019-09-04 10:00, 0.98,5.1,1.50,62.50,28.00
2019-09-04 11:00, 0.89,6.1,1.81,60.50,30.00
2019-09-04 12:00, 0.88,5.4,1.40,57.50,29.00
2019-09-04 13:00, 0.93,5.7,1.89,60.50,28.00
2019-09-04 14:00, 0.92,5.4,1.72,59.50,31.00
2019-09-04 15:00, 0.99,5.6,1.53,62.50,28.00
2019-09-04 16:00, 0.88,6.1,1.55,62.50,30.00
2019-09-04 17:00, 0.99,6.1,1.53,66.50,31.00
2019-09-04 18:00, 1.05,4.8,1.82,65.50,29.00
2019-09-04 19:00, 0.98,5.4,1.56,63.50,30.00
2019-09-04 20:00, 0.94,6.3,1.54,60.50,30.00
2019-09-04 21:00, 0.84,5.6,1.28,61.50,32.00
2019-09-04 22:00, 0.86,5.1,1.50,57.50,32.00
2019-09-04 23:00, 0.84,6.7,1.50,57.50,32.00
2019-09-05 00:00, 0.84,5.6,1.29,58.50,31.00
2019-09-05 01:00, 0.83,6.9,1.47,59.50,33.00
2019-09-05 02:00, 0.90,6.3,1.39,62.50,30.00
2019-09-05 03:00, 0.84,5.6,1.33,60.50,32.00
2019-09-05 04:00, 0.86,5.6,1.34,61.50,31.00
2019-09-05 05:00, 0.92,5.6,1.51,62.50,29.00
2019-09-05 06:00, 0.92,6.3,1.35,55.50,31.00
2019-09-05 07:00, 0.86,5.0,1.64,60.50,31.00
2019-09-05 08:00, 0.90,5.3,1.50,62.50,31.00
2019-09-05 09:00, 0.93,5.6,1.36,63.50,33.00
2019-09-05 10:00, 0.91,5.4,1.61,65.50,32.00
2019-09-05 11:00, 0.96,5.0,1.61,60.50,30.00
2019-09-05 12:00, 0.93,5.4,1.51,56.50,33.00
2019-09-05 13:00, 0.93,5.1,1.77,55.50,33.00
2019-09-05 14:00, 0.90,5.7,1.44,60.50,31.00
2019-09-05 15:00, 0.97,5.4,1.54,58.50,30.00
2019-09-05 16:00, 0.97,5.3,1.72,55.50,30.00
2019-09-05 17:00, 0.96,5.6,1.51,57.50,30.00
2019-09-05 18:00, 0.93,4.7,1.57,58.50,31.00
2019-09-05 19:00, 0.92,4.9,1.52,58.50,33.00
2019-09-05 20:00, 0.97,4.8,1.52,58.50,33.00
2019-09-05 21:00, 0.90,6.9,1.58,52.50,35.00
2019-09-05 22:00, 0.91,5.9,1.48,52.50,33.00
2019-09-05 23:00, 0.95,5.0,1.45,49.50,29.00
2019-09-06 00:00, 0.86,6.1,1.40,49.50,34.00
2019-09-06 01:00, 0.93,5.9,1.35,51.50,31.00
2019-09-06 02:00, 0.91,6.7,1.76,52.50,30.00
2019-09-06 03:00, 0.88,5.7,1.39,52.50,31.00
2019-09-06 04:00, 0.89,7.7,1.38,54.50,30.00
2019-09-06 05:00, 0.86,6.7,1.44,51.50,30.00
2019-09-06 06:00, 0.91,6.1,1.31,51.50,28.00
2019-09-06 07:00, 0.90,6.7,1.38,49.50,29.00
2019-09-06 08:00, 0.92,6.3,1.42,49.50,28.00
2019-09-06 09:00, 0.96,11.8,1.56,46.50,28.00
2019-09-06 10:00, 0.92,5.3,1.39,44.50,31.00
2019-09-06 11:00, 0.94,7.1,1.53,44.50,29.00
2019-09-06 12:00, 0.87,13.3,1.19,30.50,32.00
2019-09-06 13:00, 0.89,12.5,1.26,24.50,30.00
2019-09-06 14:00, 0.95,12.5,1.53,23.50,28.00
2019-09-06 15:00, 0.93,11.8,1.31,15.50,30.00
2019-09-06 16:00, 0.91,12.5,1.75,34.50,32.00
2019-09-06 17:00, 0.99,12.5,1.70,16.50,30.00
2019-09-06 18:00, 0.97,12.5,1.82,20.50,28.00
2019-09-06 19:00, 0.91,12.5,1.42,10.50,30.00
2019-09-06 20:00, 0.87,11.8,1.56,20.50,31.00
2019-09-06 21:00, 0.80,11.8,1.40,16.50,30.00
2019-09-06 22:00, 0.87,11.8,1.32,15.50,30.00
2019-09-06 23:00, 0.75,11.8,1.39,23.50,30.00
2019-09-07 00:00, 0.73,11.8,1.46,20.50,34.00
2019-09-07 01:00, 0.70,11.8,1.07,22.50,32.00
2019-09-07 02:00, 0.62,10.5,0.95,34.50,36.00
2019-09-07 03:00, 0.76,11.8,1.36,17.50,33.00
2019-09-07 04:00, 0.74,13.3,1.12,30.50,32.00
2019-09-07 05:00, 0.80,8.0,1.21,32.50,30.00
2019-09-07 06:00, 0.87,13.3,1.26,22.50,27.00
2019-09-07 07:00, 0.87,11.8,1.19,10.50,29.00
2019-09-07 08:00, 0.86,12.5,1.31,24.50,30.00
2019-09-07 09:00, 0.93,11.8,1.43,7.50,28.00
2019-09-07 10:00, 1.00,11.8,1.47,4.50,29.00
2019-09-07 11:00, 0.94,11.8,1.46,0.50,30.00
2019-09-07 12:00, 0.85,13.3,1.39,4.50,35.00
2019-09-07 13:00, 0.93,11.1,1.66,358.50,33.00
2019-09-07 14:00, 0.95,13.3,1.53,358.50,32.00
2019-09-07 15:00, 0.94,12.5,1.68,11.50,32.00
2019-09-07 16:00, 1.05,13.3,1.63,354.50,29.00
2019-09-07 17:00, 0.90,12.5,1.67,12.50,34.00
2019-09-07 18:00, 0.97,10.5,1.47,8.50,33.00
2019-09-07 19:00, 0.96,11.1,1.63,6.50,34.00
2019-09-07 20:00, 1.15,11.8,1.82,354.50,33.00
2019-09-07 21:00, 1.02,11.1,1.57,357.50,32.00
2019-09-07 22:00, 0.98,10.0,1.44,6.50,35.00
2019-09-07 23:00, 0.90,13.3,1.51,1.50,33.00
2019-09-08 00:00, 0.98,10.5,1.58,6.50,32.00
2019-09-08 01:00, 1.03,13.3,1.73,351.50,32.00
2019-09-08 02:00, 1.02,10.5,1.76,3.50,34.00
2019-09-08 03:00, 0.86,12.5,1.45,16.50,35.00
2019-09-08 04:00, 1.10,12.5,1.70,357.50,32.00
2019-09-08 05:00, 1.13,12.5,1.72,353.50,29.00
2019-09-08 06:00, 0.97,12.5,1.53,6.50,33.00
2019-09-08 07:00, 0.91,11.8,1.39,12.50,35.00
2019-09-08 08:00, 1.00,11.8,1.73,12.50,33.00
2019-09-08 09:00, 1.10,11.8,1.83,358.50,31.00
2019-09-08 10:00, 1.06,11.8,1.65,357.50,32.00
2019-09-08 11:00, 0.89,11.1,1.62,2.50,35.00
2019-09-08 12:00, 0.88,10.5,1.38,9.50,37.00
2019-09-08 13:00, 0.94,11.1,1.21,6.50,37.00
2019-09-08 14:00, 0.94,11.1,1.51,358.50,35.00
2019-09-08 15:00, 0.96,11.1,1.42,4.50,39.00
2019-09-08 16:00, 0.93,10.5,1.40,11.50,39.00
2019-09-08 17:00, 0.88,11.1,1.53,10.50,42.00
2019-09-08 18:00, 0.98,10.5,1.52,9.50,40.00
2019-09-08 19:00, 1.02,10.5,1.49,2.50,38.00
2019-09-08 20:00, 1.09,10.0,1.73,2.50,39.00
2019-09-08 21:00, 1.00,10.0,1.47,7.50,41.00
2019-09-08 22:00, 1.03,11.1,1.75,6.50,37.00
2019-09-08 23:00, 0.92,11.8,1.70,8.50,40.00
2019-09-09 00:00, 1.21,12.5,1.83,8.50,39.00
2019-09-09 01:00, 1.11,11.8,1.49,3.50,37.00
2019-09-09 02:00, 1.17,12.5,1.72,1.50,33.00
2019-09-09 03:00, 1.42,14.3,2.10,5.50,29.00
2019-09-09 04:00, 1.25,11.8,2.16,4.50,32.00
2019-09-09 05:00, 1.39,13.3,2.27,1.50,27.00
2019-09-09 06:00, 1.15,13.3,1.80,0.50,35.00
2019-09-09 07:00, 1.29,12.5,1.96,5.50,34.00
2019-09-09 08:00, 1.19,13.3,1.80,1.50,33.00
2019-09-09 09:00, 1.30,12.5,1.97,3.50,32.00
2019-09-09 10:00, 1.13,12.5,1.61,9.50,35.00
2019-09-09 11:00, 1.33,11.8,2.04,10.50,36.00
2019-09-09 12:00, 1.19,12.5,1.68,8.50,34.00
2019-09-09 13:00, 1.22,12.5,2.08,7.50,35.00
2019-09-09 14:00, 1.14,13.3,2.18,15.50,36.00
2019-09-09 15:00, 1.05,11.8,1.56,11.50,36.00
2019-09-09 16:00, 1.22,12.5,1.94,5.50,34.00
2019-09-09 17:00, 1.18,11.1,1.96,9.50,36.00
2019-09-09 18:00, 1.05,11.8,1.68,7.50,44.00
2019-09-09 19:00, 1.14,11.1,2.03,19.50,41.00
2019-09-09 20:00, 1.16,13.3,1.93,17.50,38.00
2019-09-09 21:00, 1.29,12.5,2.31,12.50,33.00
2019-09-09 22:00, 1.11,12.5,1.74,18.50,37.00
2019-09-09 23:00, 1.15,12.5,1.76,13.50,36.00
2019-09-10 00:00, 1.22,11.1,2.08,16.50,35.00
2019-09-10 01:00, 1.38,11.1,2.07,9.50,29.00
2019-09-10 02:00, 1.41,11.8,1.99,3.50,28.00
2019-09-10 03:00, 1.45,11.8,2.03,17.50,31.00
2019-09-10 04:00, 1.42,12.5,2.25,10.50,31.00
2019-09-10 05:00, 1.31,11.8,1.97,10.50,30.00
2019-09-10 06:00, 1.51,12.5,2.32,9.50,28.00
2019-09-10 07:00, 1.54,10.5,2.19,11.50,27.00
2019-09-10 08:00, 1.40,12.5,2.20,11.50,30.00
2019-09-10 09:00, 1.40,11.1,2.16,15.50,30.00
2019-09-10 10:00, 1.43,12.5,2.43,10.50,27.00
2019-09-10 11:00, 1.49,12.5,2.22,11.50,26.00
2019-09-10 12:00, 1.27,12.5,1.87,13.50,32.00
2019-09-10 13:00, 1.45,12.5,2.26,9.50,27.00
2019-09-10 14:00, 1.16,11.8,1.99,14.50,34.00